Location: Borgo
(42.3939°N, 9.2791°E)
Time: 01:52:59
(UTC+00:00)

CZ-4B R/B - Pass Details

Date: 24 January 2021
Orbit: 808 x 882 km, 99.1° (Epoch: 08 March)

Event Time Altitude Azimuth Distance (km) Brightness Sun altitude
Rises 17:21:41 0° 179° (S) 3,407 6.6 -10.3°
Reaches altitude 10° 17:24:06 10° 185° (S) 2,486 5.9 -10.7°
Maximum altitude 17:29:28 50° 260° (W) 1,093 4.3 -11.7°
Drops below altitude 10° 17:34:57 10° 335° (NNW) 2,539 5.8 -12.7°
Sets 17:37:27 0° 341° (NNW) 3,487 6.5 -13.1°
